DW2770 Weather Reports


Display with metric or nautical units.
time (UTC)temp
F
wind
direction
speed
MPH
gust
MPH
rain 1hr
in
rain 24hr
in
rain mn
in
humidity
%
barometer
mb
20260510230023 64 90 0.0 5.0 0.00 0.18 0.00 89 1014.6
20260510224513 64 101 3.0 7.0 0.00 0.18 0.00 89 1014.5
20260510223017 64 97 2.0 8.0 0.00 0.18 0.00 88 1014.5
20260510214512 64 77 2.0 6.0 0.00 0.18 0.18 87 1014.6
20260510213017 64 110 1.0 4.0 0.00 0.18 0.18 86 1014.6
20260510211534 64 115 1.0 6.0 0.00 0.18 0.18 86 1014.6
20260510203012 64 87 2.0 6.0 0.00 0.18 0.18 85 1014.6
20260510201520 64 109 3.0 8.0 0.00 0.18 0.18 85 1014.7
20260510200022 64 124 2.0 6.0 0.00 0.18 0.18 85 1014.9
20260510194506 64 109 1.0 4.0 0.00 0.18 0.18 85 1014.6
20260510191526 64 182 2.0 7.0 0.00 0.18 0.18 85 1014.6
20260510190022 64 132 3.0 7.0 0.00 0.18 0.18 85 1014.6
20260510184521 64 92 2.0 6.0 0.00 0.18 0.18 86 1014.3
20260510180020 65 98 3.0 9.0 0.00 0.18 0.18 85 1014.2
20260510174521 65 86 2.0 8.0 0.00 0.18 0.18 84 1014.2
20260510173022 65 93 2.0 10.0 0.00 0.18 0.18 84 1014.1
20260510164522 66 85 3.0 8.0 0.00 0.18 0.18 84 1014.0
20260510163023 66 86 3.0 9.0 0.00 0.18 0.18 85 1013.9
20260510161525 66 134 5.0 12.0 0.00 0.18 0.18 84 1013.6
20260510154503 66 82 6.0 11.0 0.00 0.18 0.18 84 1013.7
20260510153004 66 109 4.0 9.0 0.00 0.18 0.18 84 1013.8
20260510150011 66 79 3.0 9.0 0.00 0.18 0.18 84 1014.1
20260510141505 66 116 4.0 8.0 0.00 0.18 0.18 83 1014.0
20260510140007 67 113 4.0 10.0 0.00 0.18 0.18 83 1014.0
20260510134515 67 86 3.0 9.0 0.00 0.18 0.18 83 1014.1
20260510133004 67 75 4.0 10.0 0.00 0.18 0.18 83 1014.1
20260510131503 68 136 5.0 9.0 0.00 0.18 0.18 82 1013.9
20260510130013 68 90 6.0 12.0 0.00 0.18 0.18 82 1014.0
20260510120005 67 120 6.0 11.0 0.00 0.18 0.18 84 1014.0
20260510114509 67 92 5.0 9.0 0.00 0.18 0.18 83 1014.1
20260510110015 69 246 2.0 7.0 0.00 0.18 0.18 81 1014.0
20260510104507 69 297 2.0 7.0 0.00 0.18 0.18 80 1014.1
20260510103012 69 281 5.0 9.0 0.00 0.18 0.18 79 1013.9
20260510100005 69 5 4.0 9.0 0.00 0.18 0.18 79 1013.6
20260510094511 69 248 5.0 11.0 0.00 0.18 0.18 79 1013.6
20260510093013 69 267 5.0 12.0 0.00 0.18 0.18 80 1013.5
20260510091520 69 313 5.0 11.0 0.00 0.18 0.18 80 1013.5
20260510090020 69 216 5.0 12.0 0.00 0.18 0.18 81 1013.5
20260510084503 69 288 6.0 13.0 0.00 0.18 0.18 80 1013.4
20260510083008 69 285 6.0 13.0 0.00 0.18 0.18 81 1013.2
20260510081515 69 298 8.0 14.0 0.00 0.18 0.18 81 1013.1
20260510080018 68 288 8.0 14.0 0.00 0.18 0.18 83 1013.0
20260510074521 68 228 8.0 16.0 0.00 0.18 0.18 82 1012.9
20260510073008 71 319 5.0 11.0 0.00 0.18 0.18 75 1012.7
20260510071509 70 292 3.0 7.0 0.00 0.18 0.18 77 1012.3
20260510070022 70 242 4.0 7.0 0.00 0.18 0.18 73 1012.3
20260510064517 70 253 2.0 8.0 0.00 0.18 0.18 77 1012.2
20260510063026 69 290 3.0 8.0 0.00 0.18 0.18 78 1011.9
20260510061509 69 244 6.0 10.0 0.00 0.18 0.18 76 1011.8
20260510060007 68 327 2.0 11.0 0.00 0.18 0.18 73 1011.7
20260510054504 67 92 1.0 5.0 0.00 0.18 0.18 80 1012.0
20260510053019 67 202 4.0 7.0 0.00 0.18 0.18 79 1012.2
20260510051503 67 196 2.0 4.0 0.00 0.18 0.18 80 1012.3
20260510050005 66 201 2.0 6.0 0.03 0.18 0.18 82 1012.1
20260510044504 66 202 6.0 12.0 0.03 0.18 0.18 82 1012.1
20260510043005 66 196 0.0 2.0 0.03 0.18 0.18 81 1012.1
20260510041509 67 266 5.0 10.0 0.03 0.17 0.17 78 1011.8
20260510040003 69 257 6.0 15.0 0.00 0.14 0.14 71 1011.3
20260510034504 68 95 2.0 6.0 0.00 0.14 0.14 73 1010.8
20260510033004 68 38 5.0 11.0 0.00 0.14 0.14 75 1010.7
20260510031509 67 162 5.0 16.0 0.00 0.14 0.14 79 1011.2
20260510030010 66 78 5.0 10.0 0.00 0.14 0.14 81 1012.0
20260510023005 65 281 1.0 6.0 0.01 0.14 0.14 86 1013.3
20260510021507 64 132 2.0 6.0 0.01 0.14 0.14 89 1013.5
20260510020008 64 92 7.0 11.0 0.00 0.13 0.13 89 1013.7
20260510014513 64 95 3.0 10.0 0.04 0.13 0.13 89 1014.7
20260510013004 64 251 4.0 8.0 0.07 0.12 0.12 88 1015.8
20260510011505 65 229 4.0 8.0 0.11 0.12 0.12 87 1015.6
20260510010008 65 72 1.0 7.0 0.11 0.12 0.12 85 1015.6
20260510004509 65 209 12.0 23.0 0.08 0.08 0.08 85 1016.0
20260510003015 65 218 16.0 25.0 0.04 0.04 0.04 87 1016.6
20260510001503 66 234 20.0 33.0 0.01 0.01 0.01 85 1016.9
20260510000006 67 242 20.0 33.0 0.00 0.00 0.00 83 1017.1
20260509234508 67 225 22.0 33.0 0.00 0.00 0.00 81 1015.8
20260509233015 68 230 16.0 27.0 0.00 0.00 0.00 78 1014.6
20260509231519 67 217 9.0 16.0 0.00 0.00 0.00 80 1013.2